Regional Weather Roundup
Issued by NWS Green Bay, WI

Home | Current Version | Previous Version | Graphics & Text | Print | Product List | Glossary Off
Versions: 1 2 3 4 5 6 7 8 9 10 11 12 13 14 15 16 17 18 19 20 21 22 23 24 25 26 27 28 29 30 31 32 33 34 35 36 37 38 39 40 41 42 43 44 45 46 47 48 49 50

000
ASUS43 KGRB 221511
RWRGRB

NORTH-CENTRAL AND NORTHEAST WISCONSIN REGIONAL WEATHER ROUNDUP
NATIONAL WEATHER SERVICE GREEN BAY WI
1000 AM CDT SUN OCT 22 2017

WIZ005-009-010>012-018-019-221600-
NORTH CENTRAL WISCONSIN

CITY           SKY/WX    TMP DP  RH WIND       PRES   REMARKS
IRONWOOD       CLOUDY    49  42  77 SW12      29.90R
MANITOWISH WTR RAIN      47  47 100 W6        29.91R
ARBOR VITAE    LGT RAIN  49  47  93 W5        29.91R
EAGLE RIVER    NOT AVBL
LAND O LAKES   CLOUDY    48  46  91 W3        29.91S
RHINELANDER    LGT RAIN  49  48  97 W9        29.92F
PHILLIPS       CLOUDY    47  46  95 W5        29.92S
ANTIGO         RAIN      48  47  94 W8        29.93S
TOMAHAWK       CLOUDY    47  45  91 CALM      29.93S
MERRILL        DRIZZLE   49  47  91 W6        29.94S
$$

WIZ013-073-221600-
NORTHEAST WISCONSIN

CITY           SKY/WX    TMP DP  RH WIND       PRES   REMARKS
IRON MOUNTAIN  LGT RAIN  53  49  86 W8        29.88R FOG
MARINETTE      CLOUDY    61  59  93 S13G18    29.87S
OCONTO         CLOUDY    60  58  94 S3        29.87S
$$

WIZ017-030-035>037-045-221600-
CENTRAL WISCONSIN

CITY           SKY/WX    TMP DP  RH WIND       PRES   REMARKS
MEDFORD        DRIZZLE   47  44  90 W8        29.94R
WAUSAU         LGT RAIN  50  46  86 NW9       29.92R
MOSINEE        DRIZZLE   48  48 100 W9        29.95R
MARSHFIELD     LGT RAIN  49  45  86 NW9       29.94R
WISC RAPIDS    LGT RAIN  51  48  89 NW8       29.96R
STEVENS POINT  LGT RAIN  49  48  97 NW3       29.95S
WAUPACA        DRIZZLE   54  49  86 NW7       29.94R
SHAWANO        RAIN      55  52  89 W6        29.92R
CLINTONVILLE   DRIZZLE   52  46  82 NW9G23    29.92R
WAUTOMA        CLOUDY   N/A N/A N/A NW7       29.95R
$$

WIZ038-039-048-051-221600-
FOX VALLEY

CITY           SKY/WX    TMP DP  RH WIND       PRES   REMARKS
NWS GREEN BAY  LGT RAIN  57  57 100 W16       29.89R
APPLETON       CLOUDY    54  54 100 W14       29.89R
OSHKOSH        CLOUDY    54  51  90 NW10      29.91S
FOND DU LAC    LGT RAIN  55  51  86 NW15      29.91R
$$

WIZ022-050-052-221600-
EAST CENTRAL WISCONSIN

CITY           SKY/WX    TMP DP  RH WIND       PRES   REMARKS
EPHRAIM        RAIN      58  56  92 S8        29.88F
WASHINGTON ISL LGT RAIN  56  54  93 S12       29.90R
STURGEON BAY   LGT RAIN  58  56  93 S12       29.89F
MANITOWOC      CLOUDY    60  55  83 S12       29.90F
SHEBOYGAN      CLOUDY    63  59  87 S7        29.90F
$$

LMZ563-521-522-541>543-221600-
LAKESHORE

STATION/POSITION TIME  TEMP    WIND        PRES    VSBY  WAVE
                       AIR SEA DIR/SP/G                  HT/PER
                 (UTC) (F)     (DEG/KT/KT) (MB)    (MI)  (FT/S)
SHEBOYGAN LKSHOR 1500   55     180/ 19/ 20 1012.4F
KEWAUNEE LKSHORE 1442   51     180/  9/ 11 1011.7F
NORTHPORT PIER   1440   59     180/  6/ 16 1012.2S
N MID LAKE BUOY  1450   61 58  180/ 19/ 21 1013.0R         7/ 6
S GREEN BAY BUOY 1500   59 58  180/ 14/ 17 1011.3
SISTER BAY LKSHO 1404   61     170/ 17/ 23   N/A
MENOMINEE LKSHOR 1442   59     170/  9/ 12 1011.0F
$$




USA.gov is the U.S. government's official web portal to all federal, state and local government web resources and services.